Weather History for New Orleans, LA

Change the Weather History Date:

Sunday, September 30, 2012

  Actual Average Record
Temperature  
Mean Temperature 80 °F -  
Max Temperature 84 °F 83 °F 92 °F (1981)
Min Temperature 75 °F 64 °F 42 °F (1967)
Cooling Degree Days 14    
Growing Degree Days 30 (Base 50)    
Moisture  
Dew Point 74 °F    
Average Humidity 88    
Maximum Humidity 94    
Minimum Humidity 79    
Precipitation  
Precipitation 0.31 in - - ()
Sea Level Pressure  
Sea Level Pressure 29.69 in    
Wind  
Wind Speed 10 mph (South)    
Max Wind Speed 23 mph    
Max Gust Speed 30 mph    
Visibility 9 miles    
Events Rain    
Averages and records for this station are not official NWS values.
T = Trace of Precipitation, MM = Missing Value Source: NWS Daily Summary

Daily Weather History Graph

Daily Weather History Graph

Search for Another Location

Airport:

Trip Planner

Search our weather history database for the weather conditions in past years. The results will help you decide how hot, cold, wet, or windy it might be!

Date:

Astronomy

Sep. 30, 2012 Rise Set
Actual Time 6:54 AM CDT 6:47 PM CDT
Civil Twilight 6:30 AM CDT 7:10 PM CDT
Nautical Twilight 6:02 AM CDT 7:38 PM CDT
Astronomical Twilight 5:34 AM CDT 8:06 PM CDT
Moon 6:58 PM CDT (9/30) 7:18 AM CDT (9/30)
Length of Visible Light 12h 40m
Length of Day
11h 52m
Full, 100% of the Moon is Illuminated
Sep 30
Full
Oct 8
Last Quarter
Oct 15
New
Oct 21
First Quarter
Oct 29
Full

Hourly Weather History & Observations

Time (CDT) Temp. Heat Index Dew Point Humidity Pressure Visibility Wind Dir Wind Speed Gust Speed Precip Events Conditions
12:53 AM 75.0 °F - 73.0 °F 94% 29.84 in 9.0 mi SE 4.6 mph - 0.00 in   Overcast
1:53 AM 75.0 °F - 73.0 °F 94% 29.83 in 10.0 mi SE 5.8 mph - N/A   Overcast
2:53 AM 75.9 °F - 73.0 °F 91% 29.81 in 8.0 mi SE 4.6 mph - 0.00 in Rain Light Rain
3:53 AM 75.0 °F - 73.0 °F 94% 29.78 in 10.0 mi SE 4.6 mph - 0.02 in Rain Light Rain
4:53 AM 75.9 °F - 73.0 °F 91% 29.75 in 10.0 mi SE 5.8 mph - 0.00 in Rain Light Rain
5:53 AM 75.9 °F - 73.9 °F 94% 29.76 in 10.0 mi SSE 8.1 mph - 0.00 in   Overcast
6:53 AM 75.0 °F - 72.0 °F 90% 29.77 in 9.0 mi SSW 11.5 mph 23.0 mph 0.08 in Rain Light Rain
7:53 AM 75.0 °F - 72.0 °F 90% 29.76 in 10.0 mi South 9.2 mph - 0.00 in Rain Light Rain
8:53 AM 77.0 °F - 72.0 °F 84% 29.76 in 10.0 mi SSE 10.4 mph - 0.00 in   Mostly Cloudy
9:53 AM 78.1 °F - 73.0 °F 84% 29.75 in 10.0 mi SSE 19.6 mph 24.2 mph 0.00 in Rain Light Rain
10:53 AM 79.0 °F - 73.9 °F 84% 29.73 in 10.0 mi SSE 11.5 mph 20.7 mph 0.04 in   Mostly Cloudy
11:10 AM 77.0 °F - 73.4 °F 89% 29.73 in 1.5 mi SSE 17.3 mph 23.0 mph 0.02 in Rain Rain
11:18 AM 75.2 °F - 73.4 °F 94% 29.73 in 3.0 mi South 16.1 mph 25.3 mph 0.11 in Rain Rain
11:53 AM 75.9 °F - 73.0 °F 91% 29.75 in 5.0 mi South 13.8 mph 25.3 mph 0.13 in Rain Light Rain
12:47 PM 78.8 °F - 75.2 °F 89% 29.68 in 10.0 mi SE 8.1 mph - 0.05 in Rain Light Rain
12:53 PM 79.0 °F - 75.9 °F 90% 29.69 in 10.0 mi SE 9.2 mph - 0.05 in   Mostly Cloudy
1:21 PM 78.8 °F - 75.2 °F 89% 29.66 in 7.0 mi SSW 8.1 mph - 0.14 in Rain Light Rain
1:36 PM 80.6 °F 86.2 °F 75.2 °F 84% 29.66 in 10.0 mi South 11.5 mph - 0.15 in Rain Light Rain
1:53 PM 80.1 °F 85.4 °F 75.9 °F 87% 29.65 in 10.0 mi South 9.2 mph - 0.15 in   Overcast
2:53 PM 82.0 °F 88.6 °F 75.0 °F 79% 29.61 in 10.0 mi South 23.0 mph 27.6 mph N/A   Overcast
3:33 PM 80.6 °F 86.2 °F 75.2 °F 84% 29.60 in 2.5 mi South 17.3 mph 25.3 mph 0.03 in Rain Rain
3:38 PM 80.6 °F 86.2 °F 75.2 °F 84% 29.60 in 3.0 mi South 19.6 mph 29.9 mph 0.09 in Rain Rain
3:53 PM 79.0 °F - 73.9 °F 84% 29.61 in 10.0 mi SSW 19.6 mph - 0.15 in   Overcast
4:53 PM 80.1 °F 85.1 °F 75.0 °F 85% 29.59 in 9.0 mi SSW 20.7 mph 27.6 mph 0.00 in Rain Light Rain
5:53 PM 80.1 °F 85.1 °F 75.0 °F 85% 29.58 in 10.0 mi SSW 21.9 mph 29.9 mph 0.00 in   Mostly Cloudy
6:53 PM 78.1 °F - 73.9 °F 87% 29.57 in 10.0 mi South 12.7 mph - N/A   Scattered Clouds
7:53 PM 77.0 °F - 73.9 °F 90% 29.58 in 9.0 mi South 10.4 mph - N/A   Scattered Clouds
8:53 PM 75.9 °F - 72.0 °F 87% 29.59 in 10.0 mi South 9.2 mph - N/A   Partly Cloudy
9:53 PM 75.9 °F - 72.0 °F 87% 29.59 in 10.0 mi South 10.4 mph - N/A   Mostly Cloudy
10:53 PM 77.0 °F - 71.6 °F 83% 29.57 in 10.0 mi South 11.5 mph - N/A   Mostly Cloudy
11:53 PM 77.0 °F - 72.0 °F 84% 29.57 in 10.0 mi SSW 11.5 mph - N/A   Mostly Cloudy